Flag for Norway Weather past 2 weeks in Skien, Norway

Now
34 °F

Clear.


Feels Like: 27 °F
Forecast: 28 / 32 °F
Wind: 8 mph from Northwest

Location: Torp

Current Time: Dec 20, 2014 at 7:16:51 PM

Latest Report: Dec 20, 2014 at 6:50 PM


Visibility: 10 mi

Pressure: 29.47 "Hg

Humidity: 60%

Dew point: 21 °F

Location of SkienLocation

Historic Weather in Skien — Graph

°F

Skien temperature yesterday

Maximum temperature yesterday: 37 °F (at 11:50 AM)
Minimum temperature yesterday: 32 °F (at 2:50 AM)
Average temperature yesterday: 35 °F

Past Weeks' High & Low Weather Summary

 TemperatureHumidityPressure
High46 °F (Dec 7, 7:50 AM)100% (Dec 5, 5:20 PM)29.98 "Hg (Dec 5, 5:20 PM)
Low23 °F (Dec 17, 8:20 AM)60% (Dec 16, 12:50 AM)28.97 "Hg (Dec 12, 6:50 PM)
Average35 °F87%29.39 "Hg
* Reported Dec 5 5:20 PM — Dec 20 5:50 PM, Skien, Weather by CustomWeather, © 2014

Note: Actual official high and low records may vary slightly from our data, if they occured in-between our weather recording intervals... More about our weather records

Advertising

Skien weather history for previous 24 hours

 ConditionsComfort  
Time TempWeatherWind HumidityBarometerVisibility
5:50 PM
Dec 20
34 °FClear.8 mph60%29.42 "Hg10 mi
5:20 PM34 °FClear.8 mph60%29.42 "Hg10 mi
4:50 PM34 °FClear.8 mph60%29.39 "Hg10 mi
4:20 PM32 °FClear.6 mph64%29.36 "Hg10 mi
3:50 PM32 °FClear.5 mph64%29.33 "Hg10 mi
3:20 PM34 °FPassing clouds.7 mph60%29.33 "HgN/A
2:50 PM34 °FSunny.10 mph65%29.30 "Hg10 mi
2:20 PM34 °FSunny.7 mph70%29.27 "Hg10 mi
1:50 PM36 °FSunny.10 mph65%29.27 "Hg10 mi
1:20 PM34 °FSunny.8 mph81%29.24 "Hg10 mi
12:50 PM32 °FSunny.7 mph87%29.24 "Hg10 mi
12:20 PM32 °FSunny.8 mph87%29.21 "Hg10 mi
11:50 AM32 °FSunny.8 mph87%29.21 "Hg10 mi
11:20 AM30 °FSunny.5 mph93%29.18 "Hg10 mi
10:50 AM32 °FSunny.5 mph87%29.18 "Hg10 mi
10:20 AM32 °FSunny.3 mph87%29.18 "Hg10 mi
9:50 AM32 °FSunny.5 mph87%29.18 "Hg10 mi
9:20 AM32 °FPassing clouds.3 mph87%29.15 "HgN/A
8:50 AM34 °FClear.10 mph87%29.15 "Hg10 mi
8:20 AM32 °FClear.9 mph87%29.15 "Hg10 mi
7:50 AM32 °FClear.7 mph87%29.15 "Hg10 mi
7:20 AM32 °FClear.6 mph87%29.15 "Hg10 mi
6:50 AM34 °FClear.3 mph87%29.15 "Hg10 mi
6:20 AM34 °FClear.5 mph87%29.15 "Hg10 mi
5:50 AM32 °FClear.5 mph87%29.15 "Hg10 mi
5:20 AM34 °FPassing clouds.10 mph87%29.15 "HgN/A
4:50 AM34 °FChilly.10 mph87%29.15 "HgN/A
4:20 AM34 °FPassing clouds.12 mph87%29.15 "HgN/A
3:50 AM34 °FPassing clouds.12 mph87%29.15 "HgN/A
3:20 AM34 °FPassing clouds.9 mph87%29.15 "HgN/A
2:50 AM36 °FChilly.12 mph81%29.15 "HgN/A
2:20 AM34 °FChilly.6 mph87%29.15 "HgN/A
1:50 AM34 °FChilly.7 mph87%29.15 "HgN/A
1:20 AM34 °FChilly.5 mph87%29.15 "HgN/A
12:50 AM36 °FChilly.15 mph81%29.12 "HgN/A
12:20 AM36 °FChilly.12 mph81%29.15 "HgN/A
11:50 PM
Dec 19
36 °FChilly.12 mph81%29.15 "HgN/A
11:20 PM34 °FClear.9 mph81%29.15 "Hg10 mi
10:50 PM36 °FClear.12 mph75%29.15 "Hg10 mi
10:20 PM36 °FClear.14 mph75%29.15 "Hg10 mi
9:50 PM36 °FClear.13 mph75%29.15 "Hg10 mi
9:20 PM34 °FPassing clouds.7 mph81%29.12 "HgN/A
8:50 PM34 °FClear.3 mph81%29.12 "Hg10 mi
8:20 PM34 °FPassing clouds.6 mph81%29.12 "HgN/A
7:50 PM36 °FPassing clouds.8 mph75%29.12 "HgN/A
7:20 PM34 °FPassing clouds.5 mph81%29.09 "HgN/A
Weather by CustomWeather, © 2014

See weather overviewHow to use our weather pages